TimeCST,TemperatureF,Dew PointF,Humidity,Sea Level PressureIn,VisibilityMPH,Wind Direction,Wind SpeedMPH,Gust SpeedMPH,PrecipitationIn,Events,Conditions,WindDirDegrees,DateUTC
12:19 AM,64.4,62.6,94,29.68,7.0,SW,18.4,28.8,N/A,Rain-Thunderstorm,Light Rain,230,2012-11-11 06:19:00
12:24 AM,64.4,62.6,94,29.68,5.0,SSW,23.0,31.1,N/A,Rain-Thunderstorm,Rain,210,2012-11-11 06:24:00
12:27 AM,64.4,62.6,94,29.67,4.0,SW,21.9,38.0,N/A,Rain-Thunderstorm,Rain,220,2012-11-11 06:27:00
12:36 AM,62.6,60.8,94,29.66,4.0,SW,20.7,35.7,N/A,Rain-Thunderstorm,Rain,230,2012-11-11 06:36:00
12:40 AM,60.8,60.8,100,29.65,4.0,SW,18.4,35.7,N/A,Rain-Thunderstorm,Thunderstorms and Rain,230,2012-11-11 06:40:00
12:49 AM,60.8,60.8,100,29.67,6.0,SSW,18.4,-,N/A,Rain-Thunderstorm,Thunderstorms and Rain,210,2012-11-11 06:49:00
12:55 AM,60.6,60.4,99,29.67,6.0,SSW,18.4,-,0.15,Rain-Thunderstorm,Light Thunderstorms and Rain,210,2012-11-11 06:55:00
1:02 AM,60.8,60.8,100,29.65,8.0,South,8.1,-,N/A,Rain,Light Rain,190,2012-11-11 07:02:00
1:15 AM,59.0,59.0,100,29.66,6.0,South,11.5,-,N/A,Rain-Thunderstorm,Rain,180,2012-11-11 07:15:00
1:16 AM,59.0,59.0,100,29.66,6.0,South,12.7,-,N/A,Rain-Thunderstorm,Rain,180,2012-11-11 07:16:00
1:21 AM,59.0,59.0,100,29.66,5.0,SSW,15.0,-,N/A,Rain-Thunderstorm,Rain,200,2012-11-11 07:21:00
1:22 AM,59.0,59.0,100,29.67,4.0,SSW,13.8,-,N/A,Rain-Thunderstorm,Thunderstorms and Rain,200,2012-11-11 07:22:00
1:23 AM,59.0,59.0,100,29.67,4.0,SSW,13.8,-,N/A,Rain-Thunderstorm,Thunderstorms and Rain,210,2012-11-11 07:23:00
1:28 AM,59.0,59.0,100,29.66,3.0,SSW,10.4,-,N/A,Rain-Thunderstorm,Heavy Thunderstorms and Rain,210,2012-11-11 07:28:00
1:29 AM,59.0,59.0,100,29.66,2.5,SW,9.2,-,N/A,Rain-Thunderstorm,Heavy Thunderstorms and Rain,220,2012-11-11 07:29:00
1:31 AM,59.0,59.0,100,29.67,2.0,SW,11.5,-,N/A,Rain-Thunderstorm,Heavy Thunderstorms and Rain,220,2012-11-11 07:31:00
1:35 AM,59.0,59.0,100,29.68,2.0,SSW,13.8,-,N/A,Rain-Thunderstorm,Heavy Thunderstorms and Rain,210,2012-11-11 07:35:00
1:40 AM,59.0,59.0,100,29.69,2.5,SW,13.8,21.9,N/A,Rain-Thunderstorm,Rain,220,2012-11-11 07:40:00
1:41 AM,59.0,59.0,100,29.68,2.5,SW,13.8,21.9,N/A,Rain-Thunderstorm,Heavy Thunderstorms and Rain,220,2012-11-11 07:41:00
1:42 AM,59.0,59.0,100,29.68,3.0,SW,13.8,-,N/A,Rain-Thunderstorm,Heavy Thunderstorms and Rain,230,2012-11-11 07:42:00
1:45 AM,59.0,59.0,100,29.68,2.5,SW,15.0,-,N/A,Rain-Thunderstorm,Heavy Thunderstorms and Rain,230,2012-11-11 07:45:00
1:55 AM,58.6,58.6,100,29.69,2.5,SW,13.8,-,0.35,Rain-Thunderstorm,Heavy Thunderstorms and Rain,230,2012-11-11 07:55:00
2:02 AM,53.6,53.6,100,29.73,4.0,WNW,24.2,31.1,N/A,Rain-Thunderstorm,Heavy Thunderstorms and Rain,290,2012-11-11 08:02:00
2:07 AM,51.8,51.8,100,29.68,5.0,NW,24.2,33.4,N/A,Rain-Thunderstorm,Thunderstorms and Rain,310,2012-11-11 08:07:00
2:10 AM,50.0,50.0,100,29.68,5.0,NW,24.2,34.5,N/A,Rain-Thunderstorm,Thunderstorms and Rain,310,2012-11-11 08:10:00
2:11 AM,50.0,50.0,100,29.68,5.0,NW,25.3,34.5,N/A,Rain,Rain,310,2012-11-11 08:11:00
2:12 AM,50.0,50.0,100,29.68,5.0,NW,24.2,34.5,N/A,Rain,Heavy Rain,320,2012-11-11 08:12:00
2:14 AM,50.0,50.0,100,29.68,6.0,NW,25.3,34.5,N/A,Rain,Light Rain,320,2012-11-11 08:14:00
2:15 AM,50.0,50.0,100,29.68,6.0,NW,24.2,34.5,N/A,Rain,Light Rain,320,2012-11-11 08:15:00
2:24 AM,48.2,48.2,100,29.69,10.0,NNW,13.8,29.9,N/A,Rain,Light Rain,330,2012-11-11 08:24:00
2:42 AM,48.2,48.2,100,29.69,10.0,NNW,16.1,21.9,N/A,,Overcast,330,2012-11-11 08:42:00
2:45 AM,48.2,48.2,100,29.70,10.0,NNW,13.8,21.9,N/A,,Overcast,330,2012-11-11 08:45:00
2:55 AM,47.5,47.5,100,29.73,10.0,NW,12.7,-,0.08,Rain,Light Rain,320,2012-11-11 08:55:00
3:01 AM,48.2,48.2,100,29.74,8.0,NW,12.7,-,N/A,Rain,Light Rain,320,2012-11-11 09:01:00
3:04 AM,48.2,48.2,100,29.74,6.0,NW,12.7,-,N/A,Rain,Heavy Rain,320,2012-11-11 09:04:00
3:07 AM,46.4,46.4,100,29.75,6.0,NW,16.1,-,N/A,Rain,Rain,310,2012-11-11 09:07:00
3:08 AM,46.4,46.4,100,29.75,6.0,NW,16.1,-,N/A,Rain,Rain,310,2012-11-11 09:08:00
3:38 AM,44.6,44.6,100,29.73,10.0,NW,18.4,27.6,N/A,Rain,Light Rain,320,2012-11-11 09:38:00
3:46 AM,44.6,44.6,100,29.75,10.0,NW,13.8,25.3,N/A,Rain,Rain,310,2012-11-11 09:46:00
3:55 AM,44.6,44.6,100,29.78,10.0,NW,15.0,-,0.06,Rain,Light Rain,310,2012-11-11 09:55:00
4:07 AM,44.6,42.8,93,29.77,10.0,NNW,21.9,-,N/A,Rain,Rain,330,2012-11-11 10:07:00
4:47 AM,42.8,42.8,100,29.81,10.0,NNW,12.7,-,N/A,Rain,Light Rain,330,2012-11-11 10:47:00
4:55 AM,42.4,42.3,99,29.80,10.0,NW,19.6,25.3,0.04,Rain,Light Rain,310,2012-11-11 10:55:00
5:03 AM,42.8,41.0,93,29.80,10.0,NW,19.6,26.5,N/A,Rain,Light Rain,310,2012-11-11 11:03:00
5:14 AM,41.0,41.0,100,29.77,10.0,NW,17.3,29.9,N/A,Rain,Light Rain,320,2012-11-11 11:14:00
5:24 AM,39.2,39.2,100,29.78,10.0,NNW,13.8,24.2,N/A,,Overcast,330,2012-11-11 11:24:00
5:40 AM,39.2,39.2,100,29.82,10.0,NW,15.0,23.0,N/A,Rain,Light Rain,310,2012-11-11 11:40:00
5:47 AM,39.2,39.2,100,29.81,10.0,NW,18.4,-,N/A,Rain,Light Rain,320,2012-11-11 11:47:00
5:55 AM,39.0,38.5,98,29.79,10.0,NW,18.4,24.2,0.01,Rain,Light Rain,320,2012-11-11 11:55:00
6:06 AM,37.4,35.6,93,29.83,10.0,NNW,18.4,28.8,N/A,,Overcast,330,2012-11-11 12:06:00
6:27 AM,35.6,33.8,93,29.83,10.0,NNW,18.4,28.8,N/A,Rain,Light Rain,330,2012-11-11 12:27:00
6:46 AM,35.6,33.8,93,29.83,10.0,NW,19.6,-,N/A,,Mostly Cloudy,320,2012-11-11 12:46:00
6:55 AM,35.6,33.8,93,29.84,10.0,NW,16.1,26.5,0.00,,Mostly Cloudy,320,2012-11-11 12:55:00
7:02 AM,35.6,33.8,93,29.85,10.0,North,16.1,-,N/A,Rain,Light Rain,350,2012-11-11 13:02:00
7:12 AM,35.6,33.8,93,29.86,10.0,North,18.4,27.6,N/A,,Mostly Cloudy,350,2012-11-11 13:12:00
7:16 AM,35.6,33.8,93,29.88,10.0,North,15.0,19.6,N/A,Rain,Light Rain,350,2012-11-11 13:16:00
7:26 AM,35.6,33.8,93,29.89,10.0,North,11.5,-,N/A,,Overcast,360,2012-11-11 13:26:00
7:55 AM,34.7,32.2,91,29.91,10.0,North,18.4,25.3,0.00,,Overcast,350,2012-11-11 13:55:00
8:55 AM,34.0,30.2,86,29.92,10.0,North,23.0,28.8,N/A,,Overcast,350,2012-11-11 14:55:00
9:55 AM,33.6,28.6,82,29.97,10.0,North,19.6,25.3,N/A,,Overcast,350,2012-11-11 15:55:00
10:55 AM,33.3,26.4,76,30.00,10.0,NNW,20.7,26.5,N/A,,Overcast,340,2012-11-11 16:55:00
11:55 AM,33.3,25.2,72,30.00,10.0,North,18.4,-,N/A,,Mostly Cloudy,360,2012-11-11 17:55:00
12:12 PM,32.0,24.8,75,30.02,10.0,North,17.3,21.9,N/A,,Scattered Clouds,360,2012-11-11 18:12:00
12:55 PM,33.4,23.0,66,30.02,10.0,North,18.4,-,N/A,,Partly Cloudy,350,2012-11-11 18:55:00
1:55 PM,33.8,22.3,63,30.05,10.0,North,15.0,-,N/A,,Partly Cloudy,350,2012-11-11 19:55:00
2:55 PM,35.8,22.6,59,30.07,10.0,North,15.0,-,N/A,,Partly Cloudy,350,2012-11-11 20:55:00
3:55 PM,37.6,22.3,54,30.09,10.0,North,18.4,24.2,N/A,,Clear,360,2012-11-11 21:55:00
4:55 PM,37.0,19.8,50,30.13,10.0,NNW,12.7,21.9,N/A,,Clear,340,2012-11-11 22:55:00
5:55 PM,34.9,18.1,51,30.17,10.0,North,17.3,-,N/A,,Clear,350,2012-11-11 23:55:00
6:55 PM,33.6,18.3,54,30.22,10.0,NNW,8.1,-,N/A,,Clear,340,2012-11-12 00:55:00
7:55 PM,33.1,18.3,55,30.25,10.0,NNW,8.1,-,N/A,,Clear,340,2012-11-12 01:55:00
8:55 PM,32.4,18.0,55,30.27,10.0,NNW,8.1,-,N/A,,Clear,340,2012-11-12 02:55:00
9:55 PM,31.6,18.7,59,30.30,10.0,WNW,3.5,-,N/A,,Clear,300,2012-11-12 03:55:00
10:55 PM,30.6,20.5,66,30.31,10.0,Calm,Calm,-,N/A,,Clear,0,2012-11-12 04:55:00
11:55 PM,29.8,21.2,70,30.33,10.0,WNW,3.5,-,N/A,,Clear,290,2012-11-12 05:55:00